Index of /20260508/WXO-DD/model_gdps/15km/00/084
Name Last modified Size Description
Parent Directory -
20260508T00Z_MSC_GDPS_AbsoluteVorticity_IsbL-0200_LatLon0.15_PT084H.grib2 2026-05-08 04:18 1.2M
20260508T00Z_MSC_GDPS_AbsoluteVorticity_IsbL-0250_LatLon0.15_PT084H.grib2 2026-05-08 04:18 1.3M
20260508T00Z_MSC_GDPS_AbsoluteVorticity_IsbL-0500_LatLon0.15_PT084H.grib2 2026-05-08 04:18 1.5M
20260508T00Z_MSC_GDPS_AbsoluteVorticity_IsbL-0700_LatLon0.15_PT084H.grib2 2026-05-08 04:18 1.3M
20260508T00Z_MSC_GDPS_AbsoluteVorticity_IsbL-0850_LatLon0.15_PT084H.grib2 2026-05-08 04:18 1.6M
20260508T00Z_MSC_GDPS_AirTemp-Max_AGL-2m_LatLon0.15_PT084H.grib2 2026-05-08 04:18 737K
20260508T00Z_MSC_GDPS_AirTemp-Min_AGL-2m_LatLon0.15_PT084H.grib2 2026-05-08 04:18 787K
20260508T00Z_MSC_GDPS_AirTemp_AGL-120m_LatLon0.15_PT084H.grib2 2026-05-08 04:18 906K
20260508T00Z_MSC_GDPS_AirTemp_AGL-2m_LatLon0.15_PT084H.grib2 2026-05-08 04:18 1.0M
20260508T00Z_MSC_GDPS_AirTemp_AGL-40m_LatLon0.15_PT084H.grib2 2026-05-08 04:18 807K
20260508T00Z_MSC_GDPS_AirTemp_AGL-80m_LatLon0.15_PT084H.grib2 2026-05-08 04:18 796K
20260508T00Z_MSC_GDPS_AirTemp_IsbL-0001_LatLon0.15_PT084H.grib2 2026-05-08 04:18 668K
20260508T00Z_MSC_GDPS_AirTemp_IsbL-0005_LatLon0.15_PT084H.grib2 2026-05-08 04:18 534K
20260508T00Z_MSC_GDPS_AirTemp_IsbL-0010_LatLon0.15_PT084H.grib2 2026-05-08 04:18 701K
20260508T00Z_MSC_GDPS_AirTemp_IsbL-0020_LatLon0.15_PT084H.grib2 2026-05-08 04:18 790K
20260508T00Z_MSC_GDPS_AirTemp_IsbL-0030_LatLon0.15_PT084H.grib2 2026-05-08 04:18 841K
20260508T00Z_MSC_GDPS_AirTemp_IsbL-0050_LatLon0.15_PT084H.grib2 2026-05-08 04:18 886K
20260508T00Z_MSC_GDPS_AirTemp_IsbL-0100_LatLon0.15_PT084H.grib2 2026-05-08 04:18 962K
20260508T00Z_MSC_GDPS_AirTemp_IsbL-0150_LatLon0.15_PT084H.grib2 2026-05-08 04:18 963K
20260508T00Z_MSC_GDPS_AirTemp_IsbL-0175_LatLon0.15_PT084H.grib2 2026-05-08 04:18 953K
20260508T00Z_MSC_GDPS_AirTemp_IsbL-0200_LatLon0.15_PT084H.grib2 2026-05-08 04:18 1.0M
20260508T00Z_MSC_GDPS_AirTemp_IsbL-0225_LatLon0.15_PT084H.grib2 2026-05-08 04:18 964K
20260508T00Z_MSC_GDPS_AirTemp_IsbL-0250_LatLon0.15_PT084H.grib2 2026-05-08 04:18 1.0M
20260508T00Z_MSC_GDPS_AirTemp_IsbL-0275_LatLon0.15_PT084H.grib2 2026-05-08 04:18 1.0M
20260508T00Z_MSC_GDPS_AirTemp_IsbL-0300_LatLon0.15_PT084H.grib2 2026-05-08 04:18 1.0M
20260508T00Z_MSC_GDPS_AirTemp_IsbL-0350_LatLon0.15_PT084H.grib2 2026-05-08 04:18 935K
20260508T00Z_MSC_GDPS_AirTemp_IsbL-0400_LatLon0.15_PT084H.grib2 2026-05-08 04:18 949K
20260508T00Z_MSC_GDPS_AirTemp_IsbL-0450_LatLon0.15_PT084H.grib2 2026-05-08 04:18 970K
20260508T00Z_MSC_GDPS_AirTemp_IsbL-0500_LatLon0.15_PT084H.grib2 2026-05-08 04:18 1.0M
20260508T00Z_MSC_GDPS_AirTemp_IsbL-0550_LatLon0.15_PT084H.grib2 2026-05-08 04:18 1.0M
20260508T00Z_MSC_GDPS_AirTemp_IsbL-0600_LatLon0.15_PT084H.grib2 2026-05-08 04:18 898K
20260508T00Z_MSC_GDPS_AirTemp_IsbL-0650_LatLon0.15_PT084H.grib2 2026-05-08 04:18 932K
20260508T00Z_MSC_GDPS_AirTemp_IsbL-0700_LatLon0.15_PT084H.grib2 2026-05-08 04:18 965K
20260508T00Z_MSC_GDPS_AirTemp_IsbL-0750_LatLon0.15_PT084H.grib2 2026-05-08 04:18 1.0M
20260508T00Z_MSC_GDPS_AirTemp_IsbL-0800_LatLon0.15_PT084H.grib2 2026-05-08 04:18 1.1M
20260508T00Z_MSC_GDPS_AirTemp_IsbL-0850_LatLon0.15_PT084H.grib2 2026-05-08 04:18 1.1M
20260508T00Z_MSC_GDPS_AirTemp_IsbL-0875_LatLon0.15_PT084H.grib2 2026-05-08 04:18 1.2M
20260508T00Z_MSC_GDPS_AirTemp_IsbL-0900_LatLon0.15_PT084H.grib2 2026-05-08 04:18 1.1M
20260508T00Z_MSC_GDPS_AirTemp_IsbL-0925_LatLon0.15_PT084H.grib2 2026-05-08 04:18 1.1M
20260508T00Z_MSC_GDPS_AirTemp_IsbL-0950_LatLon0.15_PT084H.grib2 2026-05-08 04:18 1.1M
20260508T00Z_MSC_GDPS_AirTemp_IsbL-0970_LatLon0.15_PT084H.grib2 2026-05-08 04:18 1.2M
20260508T00Z_MSC_GDPS_AirTemp_IsbL-0985_LatLon0.15_PT084H.grib2 2026-05-08 04:18 1.1M
20260508T00Z_MSC_GDPS_AirTemp_IsbL-1000_LatLon0.15_PT084H.grib2 2026-05-08 04:18 1.1M
20260508T00Z_MSC_GDPS_AirTemp_IsbL-1015_LatLon0.15_PT084H.grib2 2026-05-08 04:18 1.1M
20260508T00Z_MSC_GDPS_Albedo_Sfc_LatLon0.15_PT084H.grib2 2026-05-08 04:18 241K
20260508T00Z_MSC_GDPS_CAPE_Sfc_LatLon0.15_PT084H.grib2 2026-05-08 04:18 4.1M
20260508T00Z_MSC_GDPS_CIN_Sfc_LatLon0.15_PT084H.grib2 2026-05-08 04:18 2.8M
20260508T00Z_MSC_GDPS_CloudWater_EAtm_LatLon0.15_PT084H.grib2 2026-05-08 04:18 544K
20260508T00Z_MSC_GDPS_ConvectivePrecip-Accum_Sfc_LatLon0.15_PT084H.grib2 2026-05-08 04:18 3.2M
20260508T00Z_MSC_GDPS_DewPointDepression_AGL-2m_LatLon0.15_PT084H.grib2 2026-05-08 04:18 757K
20260508T00Z_MSC_GDPS_DewPointDepression_IsbL-0010_LatLon0.15_PT084H.grib2 2026-05-08 04:18 92K
20260508T00Z_MSC_GDPS_DewPointDepression_IsbL-0020_LatLon0.15_PT084H.grib2 2026-05-08 04:18 90K
20260508T00Z_MSC_GDPS_DewPointDepression_IsbL-0030_LatLon0.15_PT084H.grib2 2026-05-08 04:18 107K
20260508T00Z_MSC_GDPS_DewPointDepression_IsbL-0050_LatLon0.15_PT084H.grib2 2026-05-08 04:18 380K
20260508T00Z_MSC_GDPS_DewPointDepression_IsbL-0100_LatLon0.15_PT084H.grib2 2026-05-08 04:18 392K
20260508T00Z_MSC_GDPS_DewPointDepression_IsbL-0150_LatLon0.15_PT084H.grib2 2026-05-08 04:18 507K
20260508T00Z_MSC_GDPS_DewPointDepression_IsbL-0175_LatLon0.15_PT084H.grib2 2026-05-08 04:18 592K
20260508T00Z_MSC_GDPS_DewPointDepression_IsbL-0200_LatLon0.15_PT084H.grib2 2026-05-08 04:18 688K
20260508T00Z_MSC_GDPS_DewPointDepression_IsbL-0225_LatLon0.15_PT084H.grib2 2026-05-08 04:18 783K
20260508T00Z_MSC_GDPS_DewPointDepression_IsbL-0250_LatLon0.15_PT084H.grib2 2026-05-08 04:18 880K
20260508T00Z_MSC_GDPS_DewPointDepression_IsbL-0275_LatLon0.15_PT084H.grib2 2026-05-08 04:18 907K
20260508T00Z_MSC_GDPS_DewPointDepression_IsbL-0300_LatLon0.15_PT084H.grib2 2026-05-08 04:18 946K
20260508T00Z_MSC_GDPS_DewPointDepression_IsbL-0350_LatLon0.15_PT084H.grib2 2026-05-08 04:18 972K
20260508T00Z_MSC_GDPS_DewPointDepression_IsbL-0400_LatLon0.15_PT084H.grib2 2026-05-08 04:18 1.0M
20260508T00Z_MSC_GDPS_DewPointDepression_IsbL-0450_LatLon0.15_PT084H.grib2 2026-05-08 04:18 1.0M
20260508T00Z_MSC_GDPS_DewPointDepression_IsbL-0500_LatLon0.15_PT084H.grib2 2026-05-08 04:18 1.0M
20260508T00Z_MSC_GDPS_DewPointDepression_IsbL-0550_LatLon0.15_PT084H.grib2 2026-05-08 04:18 1.0M
20260508T00Z_MSC_GDPS_DewPointDepression_IsbL-0600_LatLon0.15_PT084H.grib2 2026-05-08 04:18 1.1M
20260508T00Z_MSC_GDPS_DewPointDepression_IsbL-0650_LatLon0.15_PT084H.grib2 2026-05-08 04:18 1.1M
20260508T00Z_MSC_GDPS_DewPointDepression_IsbL-0700_LatLon0.15_PT084H.grib2 2026-05-08 04:18 1.1M
20260508T00Z_MSC_GDPS_DewPointDepression_IsbL-0750_LatLon0.15_PT084H.grib2 2026-05-08 04:18 1.1M
20260508T00Z_MSC_GDPS_DewPointDepression_IsbL-0800_LatLon0.15_PT084H.grib2 2026-05-08 04:18 1.2M
20260508T00Z_MSC_GDPS_DewPointDepression_IsbL-0850_LatLon0.15_PT084H.grib2 2026-05-08 04:18 1.1M
20260508T00Z_MSC_GDPS_DewPointDepression_IsbL-0875_LatLon0.15_PT084H.grib2 2026-05-08 04:18 1.1M
20260508T00Z_MSC_GDPS_DewPointDepression_IsbL-0900_LatLon0.15_PT084H.grib2 2026-05-08 04:18 1.0M
20260508T00Z_MSC_GDPS_DewPointDepression_IsbL-0925_LatLon0.15_PT084H.grib2 2026-05-08 04:18 1.0M
20260508T00Z_MSC_GDPS_DewPointDepression_IsbL-0950_LatLon0.15_PT084H.grib2 2026-05-08 04:18 1.0M
20260508T00Z_MSC_GDPS_DewPointDepression_IsbL-0970_LatLon0.15_PT084H.grib2 2026-05-08 04:18 1.0M
20260508T00Z_MSC_GDPS_DewPointDepression_IsbL-0985_LatLon0.15_PT084H.grib2 2026-05-08 04:18 967K
20260508T00Z_MSC_GDPS_DewPointDepression_IsbL-1000_LatLon0.15_PT084H.grib2 2026-05-08 04:18 955K
20260508T00Z_MSC_GDPS_DewPointDepression_IsbL-1015_LatLon0.15_PT084H.grib2 2026-05-08 04:18 896K
20260508T00Z_MSC_GDPS_DewPoint_AGL-2m_LatLon0.15_PT084H.grib2 2026-05-08 04:18 608K
20260508T00Z_MSC_GDPS_DownwardLongwaveRadiationFlux-Accum_Sfc_LatLon0.15_PT084H.grib2 2026-05-08 04:18 695K
20260508T00Z_MSC_GDPS_DownwardShortwaveRadiationFlux-Accum_NTAtm_LatLon0.15_PT084H.grib2 2026-05-08 04:18 266K
20260508T00Z_MSC_GDPS_DownwardShortwaveRadiationFlux-Accum_Sfc_LatLon0.15_PT084H.grib2 2026-05-08 04:18 917K
20260508T00Z_MSC_GDPS_FreezingRain-Accum12h_Sfc_LatLon0.15_PT084H.grib2 2026-05-08 04:18 62K
20260508T00Z_MSC_GDPS_FreezingRain-Accum1h_Sfc_LatLon0.15_PT084H.grib2 2026-05-08 04:18 56K
20260508T00Z_MSC_GDPS_FreezingRain-Accum24h_Sfc_LatLon0.15_PT084H.grib2 2026-05-08 04:18 102K
20260508T00Z_MSC_GDPS_FreezingRain-Accum3h_Sfc_LatLon0.15_PT084H.grib2 2026-05-08 04:18 38K
20260508T00Z_MSC_GDPS_FreezingRain-Accum6h_Sfc_LatLon0.15_PT084H.grib2 2026-05-08 04:18 56K
20260508T00Z_MSC_GDPS_FreezingRain-Accum_Sfc_LatLon0.15_PT084H.grib2 2026-05-08 04:18 269K
20260508T00Z_MSC_GDPS_GeopotentialHeight_IsbL-0001_LatLon0.15_PT084H.grib2 2026-05-08 04:18 441K
20260508T00Z_MSC_GDPS_GeopotentialHeight_IsbL-0005_LatLon0.15_PT084H.grib2 2026-05-08 04:18 486K
20260508T00Z_MSC_GDPS_GeopotentialHeight_IsbL-0010_LatLon0.15_PT084H.grib2 2026-05-08 04:18 470K
20260508T00Z_MSC_GDPS_GeopotentialHeight_IsbL-0020_LatLon0.15_PT084H.grib2 2026-05-08 04:18 405K
20260508T00Z_MSC_GDPS_GeopotentialHeight_IsbL-0030_LatLon0.15_PT084H.grib2 2026-05-08 04:18 404K
20260508T00Z_MSC_GDPS_GeopotentialHeight_IsbL-0050_LatLon0.15_PT084H.grib2 2026-05-08 04:18 562K
20260508T00Z_MSC_GDPS_GeopotentialHeight_IsbL-0100_LatLon0.15_PT084H.grib2 2026-05-08 04:18 601K
20260508T00Z_MSC_GDPS_GeopotentialHeight_IsbL-0150_LatLon0.15_PT084H.grib2 2026-05-08 04:18 622K
20260508T00Z_MSC_GDPS_GeopotentialHeight_IsbL-0175_LatLon0.15_PT084H.grib2 2026-05-08 04:18 626K
20260508T00Z_MSC_GDPS_GeopotentialHeight_IsbL-0200_LatLon0.15_PT084H.grib2 2026-05-08 04:18 630K
20260508T00Z_MSC_GDPS_GeopotentialHeight_IsbL-0225_LatLon0.15_PT084H.grib2 2026-05-08 04:18 630K
20260508T00Z_MSC_GDPS_GeopotentialHeight_IsbL-0250_LatLon0.15_PT084H.grib2 2026-05-08 04:18 638K
20260508T00Z_MSC_GDPS_GeopotentialHeight_IsbL-0275_LatLon0.15_PT084H.grib2 2026-05-08 04:18 641K
20260508T00Z_MSC_GDPS_GeopotentialHeight_IsbL-0300_LatLon0.15_PT084H.grib2 2026-05-08 04:18 633K
20260508T00Z_MSC_GDPS_GeopotentialHeight_IsbL-0350_LatLon0.15_PT084H.grib2 2026-05-08 04:18 630K
20260508T00Z_MSC_GDPS_GeopotentialHeight_IsbL-0400_LatLon0.15_PT084H.grib2 2026-05-08 04:18 618K
20260508T00Z_MSC_GDPS_GeopotentialHeight_IsbL-0450_LatLon0.15_PT084H.grib2 2026-05-08 04:18 605K
20260508T00Z_MSC_GDPS_GeopotentialHeight_IsbL-0500_LatLon0.15_PT084H.grib2 2026-05-08 04:18 591K
20260508T00Z_MSC_GDPS_GeopotentialHeight_IsbL-0550_LatLon0.15_PT084H.grib2 2026-05-08 04:18 521K
20260508T00Z_MSC_GDPS_GeopotentialHeight_IsbL-0600_LatLon0.15_PT084H.grib2 2026-05-08 04:18 523K
20260508T00Z_MSC_GDPS_GeopotentialHeight_IsbL-0650_LatLon0.15_PT084H.grib2 2026-05-08 04:18 523K
20260508T00Z_MSC_GDPS_GeopotentialHeight_IsbL-0700_LatLon0.15_PT084H.grib2 2026-05-08 04:18 695K
20260508T00Z_MSC_GDPS_GeopotentialHeight_IsbL-0750_LatLon0.15_PT084H.grib2 2026-05-08 04:18 700K
20260508T00Z_MSC_GDPS_GeopotentialHeight_IsbL-0800_LatLon0.15_PT084H.grib2 2026-05-08 04:18 710K
20260508T00Z_MSC_GDPS_GeopotentialHeight_IsbL-0850_LatLon0.15_PT084H.grib2 2026-05-08 04:18 719K
20260508T00Z_MSC_GDPS_GeopotentialHeight_IsbL-0875_LatLon0.15_PT084H.grib2 2026-05-08 04:18 719K
20260508T00Z_MSC_GDPS_GeopotentialHeight_IsbL-0900_LatLon0.15_PT084H.grib2 2026-05-08 04:18 725K
20260508T00Z_MSC_GDPS_GeopotentialHeight_IsbL-0925_LatLon0.15_PT084H.grib2 2026-05-08 04:18 734K
20260508T00Z_MSC_GDPS_GeopotentialHeight_IsbL-0950_LatLon0.15_PT084H.grib2 2026-05-08 04:18 740K
20260508T00Z_MSC_GDPS_GeopotentialHeight_IsbL-0970_LatLon0.15_PT084H.grib2 2026-05-08 04:18 753K
20260508T00Z_MSC_GDPS_GeopotentialHeight_IsbL-0985_LatLon0.15_PT084H.grib2 2026-05-08 04:18 769K
20260508T00Z_MSC_GDPS_GeopotentialHeight_IsbL-1000_LatLon0.15_PT084H.grib2 2026-05-08 04:18 791K
20260508T00Z_MSC_GDPS_GeopotentialHeight_IsbL-1015_LatLon0.15_PT084H.grib2 2026-05-08 04:18 815K
20260508T00Z_MSC_GDPS_Humidex_Sfc_LatLon0.15_PT084H.grib2 2026-05-08 04:18 5.3M
20260508T00Z_MSC_GDPS_IcePellets-Accum12h_Sfc_LatLon0.15_PT084H.grib2 2026-05-08 04:18 59K
20260508T00Z_MSC_GDPS_IcePellets-Accum1h_Sfc_LatLon0.15_PT084H.grib2 2026-05-08 04:18 31K
20260508T00Z_MSC_GDPS_IcePellets-Accum24h_Sfc_LatLon0.15_PT084H.grib2 2026-05-08 04:18 89K
20260508T00Z_MSC_GDPS_IcePellets-Accum3h_Sfc_LatLon0.15_PT084H.grib2 2026-05-08 04:18 36K
20260508T00Z_MSC_GDPS_IcePellets-Accum6h_Sfc_LatLon0.15_PT084H.grib2 2026-05-08 04:18 48K
20260508T00Z_MSC_GDPS_IcePellets-Accum_Sfc_LatLon0.15_PT084H.grib2 2026-05-08 04:18 122K
20260508T00Z_MSC_GDPS_KIndex_Sfc_LatLon0.15_PT084H.grib2 2026-05-08 04:18 6.5M
20260508T00Z_MSC_GDPS_LatentHeatNetFlux_Sfc_LatLon0.15_PT084H.grib2 2026-05-08 04:18 727K
20260508T00Z_MSC_GDPS_LiftedIndex-MU-VT_IsbL-0500_LatLon0.15_PT084H.grib2 2026-05-08 04:18 5.4M
20260508T00Z_MSC_GDPS_NetLongwaveRadiationFlux-Accum_Sfc_LatLon0.15_PT084H.grib2 2026-05-08 04:18 925K
20260508T00Z_MSC_GDPS_NetShortwaveRadiationFlux-Accum_Sfc_LatLon0.15_PT084H.grib2 2026-05-08 04:18 884K
20260508T00Z_MSC_GDPS_O3MixingRatio_Sfc_LatLon0.15_PT084H.grib2 2026-05-08 04:50 1.9M
20260508T00Z_MSC_GDPS_O3_EAtm_LatLon0.15_PT084H.grib2 2026-05-08 04:50 2.5M
20260508T00Z_MSC_GDPS_PlanetaryBoundaryLayerHeight_Sfc_LatLon0.15_PT084H.grib2 2026-05-08 04:18 2.5M
20260508T00Z_MSC_GDPS_Precip-Accum12h_Sfc_LatLon0.15_PT084H.grib2 2026-05-08 04:18 4.0M
20260508T00Z_MSC_GDPS_Precip-Accum1h_Sfc_LatLon0.15_PT084H.grib2 2026-05-08 04:18 3.3M
20260508T00Z_MSC_GDPS_Precip-Accum24h_Sfc_LatLon0.15_PT084H.grib2 2026-05-08 04:18 4.6M
20260508T00Z_MSC_GDPS_Precip-Accum3h_Sfc_LatLon0.15_PT084H.grib2 2026-05-08 04:18 3.4M
20260508T00Z_MSC_GDPS_Precip-Accum6h_Sfc_LatLon0.15_PT084H.grib2 2026-05-08 04:18 3.6M
20260508T00Z_MSC_GDPS_Precip-Accum_Sfc_LatLon0.15_PT084H.grib2 2026-05-08 04:18 5.0M
20260508T00Z_MSC_GDPS_PrecipRate_Sfc_LatLon0.15_PT084H.grib2 2026-05-08 04:18 3.0M
20260508T00Z_MSC_GDPS_PrecipType-Instant_Sfc_LatLon0.15_PT084H.grib2 2026-05-08 04:18 1.6M
20260508T00Z_MSC_GDPS_Pressure_MSL_LatLon0.15_PT084H.grib2 2026-05-08 04:18 839K
20260508T00Z_MSC_GDPS_Pressure_PVU-1.5_LatLon0.15_PT084H.grib2 2026-05-08 04:18 5.8M
20260508T00Z_MSC_GDPS_Pressure_PVU-1_LatLon0.15_PT084H.grib2 2026-05-08 04:18 6.0M
20260508T00Z_MSC_GDPS_Pressure_PVU-2_LatLon0.15_PT084H.grib2 2026-05-08 04:18 5.7M
20260508T00Z_MSC_GDPS_Pressure_Sfc_LatLon0.15_PT084H.grib2 2026-05-08 04:18 1.1M
20260508T00Z_MSC_GDPS_RadiativeTemp_Sfc_LatLon0.15_PT084H.grib2 2026-05-08 04:18 494K
20260508T00Z_MSC_GDPS_Rain-Accum12h_Sfc_LatLon0.15_PT084H.grib2 2026-05-08 04:18 2.7M
20260508T00Z_MSC_GDPS_Rain-Accum1h_Sfc_LatLon0.15_PT084H.grib2 2026-05-08 04:18 1.6M
20260508T00Z_MSC_GDPS_Rain-Accum24h_Sfc_LatLon0.15_PT084H.grib2 2026-05-08 04:18 3.2M
20260508T00Z_MSC_GDPS_Rain-Accum3h_Sfc_LatLon0.15_PT084H.grib2 2026-05-08 04:18 1.8M
20260508T00Z_MSC_GDPS_Rain-Accum6h_Sfc_LatLon0.15_PT084H.grib2 2026-05-08 04:18 2.3M
20260508T00Z_MSC_GDPS_Rain-Accum_Sfc_LatLon0.15_PT084H.grib2 2026-05-08 04:18 3.8M
20260508T00Z_MSC_GDPS_RelativeHumidity_AGL-2m_LatLon0.15_PT084H.grib2 2026-05-08 04:18 1.1M
20260508T00Z_MSC_GDPS_RelativeHumidity_IsbL-0010_LatLon0.15_PT084H.grib2 2026-05-08 04:18 157K
20260508T00Z_MSC_GDPS_RelativeHumidity_IsbL-0020_LatLon0.15_PT084H.grib2 2026-05-08 04:18 174K
20260508T00Z_MSC_GDPS_RelativeHumidity_IsbL-0030_LatLon0.15_PT084H.grib2 2026-05-08 04:18 194K
20260508T00Z_MSC_GDPS_RelativeHumidity_IsbL-0050_LatLon0.15_PT084H.grib2 2026-05-08 04:18 342K
20260508T00Z_MSC_GDPS_RelativeHumidity_IsbL-0100_LatLon0.15_PT084H.grib2 2026-05-08 04:18 351K
20260508T00Z_MSC_GDPS_RelativeHumidity_IsbL-0150_LatLon0.15_PT084H.grib2 2026-05-08 04:18 695K
20260508T00Z_MSC_GDPS_RelativeHumidity_IsbL-0175_LatLon0.15_PT084H.grib2 2026-05-08 04:18 803K
20260508T00Z_MSC_GDPS_RelativeHumidity_IsbL-0200_LatLon0.15_PT084H.grib2 2026-05-08 04:18 712K
20260508T00Z_MSC_GDPS_RelativeHumidity_IsbL-0225_LatLon0.15_PT084H.grib2 2026-05-08 04:18 795K
20260508T00Z_MSC_GDPS_RelativeHumidity_IsbL-0250_LatLon0.15_PT084H.grib2 2026-05-08 04:18 874K
20260508T00Z_MSC_GDPS_RelativeHumidity_IsbL-0275_LatLon0.15_PT084H.grib2 2026-05-08 04:18 895K
20260508T00Z_MSC_GDPS_RelativeHumidity_IsbL-0300_LatLon0.15_PT084H.grib2 2026-05-08 04:18 935K
20260508T00Z_MSC_GDPS_RelativeHumidity_IsbL-0350_LatLon0.15_PT084H.grib2 2026-05-08 04:18 953K
20260508T00Z_MSC_GDPS_RelativeHumidity_IsbL-0400_LatLon0.15_PT084H.grib2 2026-05-08 04:18 1.0M
20260508T00Z_MSC_GDPS_RelativeHumidity_IsbL-0450_LatLon0.15_PT084H.grib2 2026-05-08 04:18 1.0M
20260508T00Z_MSC_GDPS_RelativeHumidity_IsbL-0500_LatLon0.15_PT084H.grib2 2026-05-08 04:18 1.0M
20260508T00Z_MSC_GDPS_RelativeHumidity_IsbL-0550_LatLon0.15_PT084H.grib2 2026-05-08 04:18 1.0M
20260508T00Z_MSC_GDPS_RelativeHumidity_IsbL-0600_LatLon0.15_PT084H.grib2 2026-05-08 04:18 1.1M
20260508T00Z_MSC_GDPS_RelativeHumidity_IsbL-0650_LatLon0.15_PT084H.grib2 2026-05-08 04:18 1.1M
20260508T00Z_MSC_GDPS_RelativeHumidity_IsbL-0700_LatLon0.15_PT084H.grib2 2026-05-08 04:18 1.1M
20260508T00Z_MSC_GDPS_RelativeHumidity_IsbL-0750_LatLon0.15_PT084H.grib2 2026-05-08 04:18 1.2M
20260508T00Z_MSC_GDPS_RelativeHumidity_IsbL-0800_LatLon0.15_PT084H.grib2 2026-05-08 04:18 1.2M
20260508T00Z_MSC_GDPS_RelativeHumidity_IsbL-0850_LatLon0.15_PT084H.grib2 2026-05-08 04:18 1.2M
20260508T00Z_MSC_GDPS_RelativeHumidity_IsbL-0875_LatLon0.15_PT084H.grib2 2026-05-08 04:18 1.2M
20260508T00Z_MSC_GDPS_RelativeHumidity_IsbL-0900_LatLon0.15_PT084H.grib2 2026-05-08 04:18 1.2M
20260508T00Z_MSC_GDPS_RelativeHumidity_IsbL-0925_LatLon0.15_PT084H.grib2 2026-05-08 04:18 1.2M
20260508T00Z_MSC_GDPS_RelativeHumidity_IsbL-0950_LatLon0.15_PT084H.grib2 2026-05-08 04:18 1.2M
20260508T00Z_MSC_GDPS_RelativeHumidity_IsbL-0970_LatLon0.15_PT084H.grib2 2026-05-08 04:18 1.1M
20260508T00Z_MSC_GDPS_RelativeHumidity_IsbL-0985_LatLon0.15_PT084H.grib2 2026-05-08 04:18 1.1M
20260508T00Z_MSC_GDPS_RelativeHumidity_IsbL-1000_LatLon0.15_PT084H.grib2 2026-05-08 04:18 1.1M
20260508T00Z_MSC_GDPS_RelativeHumidity_IsbL-1015_LatLon0.15_PT084H.grib2 2026-05-08 04:18 1.0M
20260508T00Z_MSC_GDPS_RelativeVorticity_IsbL-0200_LatLon0.15_PT084H.grib2 2026-05-08 04:18 1.5M
20260508T00Z_MSC_GDPS_RelativeVorticity_IsbL-0250_LatLon0.15_PT084H.grib2 2026-05-08 04:18 1.3M
20260508T00Z_MSC_GDPS_RelativeVorticity_IsbL-0500_LatLon0.15_PT084H.grib2 2026-05-08 04:18 1.5M
20260508T00Z_MSC_GDPS_RelativeVorticity_IsbL-0700_LatLon0.15_PT084H.grib2 2026-05-08 04:18 1.3M
20260508T00Z_MSC_GDPS_RelativeVorticity_IsbL-0850_LatLon0.15_PT084H.grib2 2026-05-08 04:18 1.6M
20260508T00Z_MSC_GDPS_Runoff-Accum_Sfc_LatLon0.15_PT084H.grib2 2026-05-08 04:18 117K
20260508T00Z_MSC_GDPS_SensibleHeatNetFlux_Sfc_LatLon0.15_PT084H.grib2 2026-05-08 04:18 488K
20260508T00Z_MSC_GDPS_ShowalterIndex_IsbL-0500_LatLon0.15_PT084H.grib2 2026-05-08 04:18 6.2M
20260508T00Z_MSC_GDPS_Snow-Accum12h_Sfc_LatLon0.15_PT084H.grib2 2026-05-08 04:18 1.3M
20260508T00Z_MSC_GDPS_Snow-Accum1h_Sfc_LatLon0.15_PT084H.grib2 2026-05-08 04:18 817K
20260508T00Z_MSC_GDPS_Snow-Accum24h_Sfc_LatLon0.15_PT084H.grib2 2026-05-08 04:18 1.4M
20260508T00Z_MSC_GDPS_Snow-Accum3h_Sfc_LatLon0.15_PT084H.grib2 2026-05-08 04:18 859K
20260508T00Z_MSC_GDPS_Snow-Accum6h_Sfc_LatLon0.15_PT084H.grib2 2026-05-08 04:18 1.2M
20260508T00Z_MSC_GDPS_Snow-Accum_Sfc_LatLon0.15_PT084H.grib2 2026-05-08 04:18 1.8M
20260508T00Z_MSC_GDPS_SnowDensity_Sfc_LatLon0.15_PT084H.grib2 2026-05-08 04:18 258K
20260508T00Z_MSC_GDPS_SnowDepth_Sfc_LatLon0.15_PT084H.grib2 2026-05-08 04:18 1.7M
20260508T00Z_MSC_GDPS_SoilTemp_DBS-0to10cm_LatLon0.15_PT084H.grib2 2026-05-08 04:18 510K
20260508T00Z_MSC_GDPS_SoilTemp_Sfc_LatLon0.15_PT084H.grib2 2026-05-08 04:18 590K
20260508T00Z_MSC_GDPS_SoilVolumetricIceContent_Sfc_LatLon0.15_PT084H.grib2 2026-05-08 04:18 176K
20260508T00Z_MSC_GDPS_SoilVolumetricWaterContent_DBS-0to10cm_LatLon0.15_PT084H.grib2 2026-05-08 04:18 601K
20260508T00Z_MSC_GDPS_SoilVolumetricWaterContent_DBS-0to1cm_LatLon0.15_PT084H.grib2 2026-05-08 04:18 644K
20260508T00Z_MSC_GDPS_SpecificHumidity_AGL-120m_LatLon0.15_PT084H.grib2 2026-05-08 04:18 1.1M
20260508T00Z_MSC_GDPS_SpecificHumidity_AGL-2m_LatLon0.15_PT084H.grib2 2026-05-08 04:18 1.2M
20260508T00Z_MSC_GDPS_SpecificHumidity_AGL-40m_LatLon0.15_PT084H.grib2 2026-05-08 04:18 1.1M
20260508T00Z_MSC_GDPS_SpecificHumidity_AGL-80m_LatLon0.15_PT084H.grib2 2026-05-08 04:18 1.1M
20260508T00Z_MSC_GDPS_SpecificHumidity_IsbL-0001_LatLon0.15_PT084H.grib2 2026-05-08 04:18 1.3M
20260508T00Z_MSC_GDPS_SpecificHumidity_IsbL-0005_LatLon0.15_PT084H.grib2 2026-05-08 04:18 1.2M
20260508T00Z_MSC_GDPS_SpecificHumidity_IsbL-0010_LatLon0.15_PT084H.grib2 2026-05-08 04:18 1.3M
20260508T00Z_MSC_GDPS_SpecificHumidity_IsbL-0020_LatLon0.15_PT084H.grib2 2026-05-08 04:18 1.3M
20260508T00Z_MSC_GDPS_SpecificHumidity_IsbL-0030_LatLon0.15_PT084H.grib2 2026-05-08 04:18 1.3M
20260508T00Z_MSC_GDPS_SpecificHumidity_IsbL-0050_LatLon0.15_PT084H.grib2 2026-05-08 04:18 1.3M
20260508T00Z_MSC_GDPS_SpecificHumidity_IsbL-0100_LatLon0.15_PT084H.grib2 2026-05-08 04:18 1.3M
20260508T00Z_MSC_GDPS_SpecificHumidity_IsbL-0150_LatLon0.15_PT084H.grib2 2026-05-08 04:18 1.3M
20260508T00Z_MSC_GDPS_SpecificHumidity_IsbL-0175_LatLon0.15_PT084H.grib2 2026-05-08 04:18 1.3M
20260508T00Z_MSC_GDPS_SpecificHumidity_IsbL-0200_LatLon0.15_PT084H.grib2 2026-05-08 04:18 1.3M
20260508T00Z_MSC_GDPS_SpecificHumidity_IsbL-0225_LatLon0.15_PT084H.grib2 2026-05-08 04:18 1.3M
20260508T00Z_MSC_GDPS_SpecificHumidity_IsbL-0250_LatLon0.15_PT084H.grib2 2026-05-08 04:18 1.2M
20260508T00Z_MSC_GDPS_SpecificHumidity_IsbL-0275_LatLon0.15_PT084H.grib2 2026-05-08 04:18 1.4M
20260508T00Z_MSC_GDPS_SpecificHumidity_IsbL-0300_LatLon0.15_PT084H.grib2 2026-05-08 04:18 1.3M
20260508T00Z_MSC_GDPS_SpecificHumidity_IsbL-0350_LatLon0.15_PT084H.grib2 2026-05-08 04:18 1.3M
20260508T00Z_MSC_GDPS_SpecificHumidity_IsbL-0400_LatLon0.15_PT084H.grib2 2026-05-08 04:18 1.4M
20260508T00Z_MSC_GDPS_SpecificHumidity_IsbL-0450_LatLon0.15_PT084H.grib2 2026-05-08 04:18 1.3M
20260508T00Z_MSC_GDPS_SpecificHumidity_IsbL-0500_LatLon0.15_PT084H.grib2 2026-05-08 04:18 1.5M
20260508T00Z_MSC_GDPS_SpecificHumidity_IsbL-0550_LatLon0.15_PT084H.grib2 2026-05-08 04:18 1.6M
20260508T00Z_MSC_GDPS_SpecificHumidity_IsbL-0600_LatLon0.15_PT084H.grib2 2026-05-08 04:18 1.5M
20260508T00Z_MSC_GDPS_SpecificHumidity_IsbL-0650_LatLon0.15_PT084H.grib2 2026-05-08 04:18 1.6M
20260508T00Z_MSC_GDPS_SpecificHumidity_IsbL-0700_LatLon0.15_PT084H.grib2 2026-05-08 04:18 1.7M
20260508T00Z_MSC_GDPS_SpecificHumidity_IsbL-0750_LatLon0.15_PT084H.grib2 2026-05-08 04:18 1.8M
20260508T00Z_MSC_GDPS_SpecificHumidity_IsbL-0800_LatLon0.15_PT084H.grib2 2026-05-08 04:18 1.9M
20260508T00Z_MSC_GDPS_SpecificHumidity_IsbL-0850_LatLon0.15_PT084H.grib2 2026-05-08 04:18 2.0M
20260508T00Z_MSC_GDPS_SpecificHumidity_IsbL-0875_LatLon0.15_PT084H.grib2 2026-05-08 04:18 2.0M
20260508T00Z_MSC_GDPS_SpecificHumidity_IsbL-0900_LatLon0.15_PT084H.grib2 2026-05-08 04:18 1.9M
20260508T00Z_MSC_GDPS_SpecificHumidity_IsbL-0925_LatLon0.15_PT084H.grib2 2026-05-08 04:18 1.6M
20260508T00Z_MSC_GDPS_SpecificHumidity_IsbL-0950_LatLon0.15_PT084H.grib2 2026-05-08 04:18 1.6M
20260508T00Z_MSC_GDPS_SpecificHumidity_IsbL-0970_LatLon0.15_PT084H.grib2 2026-05-08 04:18 1.6M
20260508T00Z_MSC_GDPS_SpecificHumidity_IsbL-0985_LatLon0.15_PT084H.grib2 2026-05-08 04:18 1.5M
20260508T00Z_MSC_GDPS_SpecificHumidity_IsbL-1000_LatLon0.15_PT084H.grib2 2026-05-08 04:18 1.5M
20260508T00Z_MSC_GDPS_SpecificHumidity_IsbL-1015_LatLon0.15_PT084H.grib2 2026-05-08 04:18 1.5M
20260508T00Z_MSC_GDPS_SpecificHumidity_Sfc_LatLon0.15_PT084H.grib2 2026-05-08 04:18 684K
20260508T00Z_MSC_GDPS_Thickness_IsbL-0850to0700_LatLon0.15_PT084H.grib2 2026-05-08 04:18 477K
20260508T00Z_MSC_GDPS_Thickness_IsbL-1000to0500_LatLon0.15_PT084H.grib2 2026-05-08 04:18 381K
20260508T00Z_MSC_GDPS_Thickness_IsbL-1000to0850_LatLon0.15_PT084H.grib2 2026-05-08 04:18 493K
20260508T00Z_MSC_GDPS_TotalCloudCover_Sfc_LatLon0.15_PT084H.grib2 2026-05-08 04:18 828K
20260508T00Z_MSC_GDPS_TotalTotalsIndex_Sfc_LatLon0.15_PT084H.grib2 2026-05-08 04:18 6.2M
20260508T00Z_MSC_GDPS_UVIndex-ClearSky_Sfc_LatLon0.15_PT084H.grib2 2026-05-08 04:50 1.0M
20260508T00Z_MSC_GDPS_UVIndex_Sfc_LatLon0.15_PT084H.grib2 2026-05-08 04:50 1.5M
20260508T00Z_MSC_GDPS_UpwardLongwaveRadiationFlux_NTAtm_LatLon0.15_PT084H.grib2 2026-05-08 04:18 847K
20260508T00Z_MSC_GDPS_VerticalVelocity_IsbL-0200_LatLon0.15_PT084H.grib2 2026-05-08 04:18 927K
20260508T00Z_MSC_GDPS_VerticalVelocity_IsbL-0250_LatLon0.15_PT084H.grib2 2026-05-08 04:18 1.0M
20260508T00Z_MSC_GDPS_VerticalVelocity_IsbL-0500_LatLon0.15_PT084H.grib2 2026-05-08 04:18 1.3M
20260508T00Z_MSC_GDPS_VerticalVelocity_IsbL-0600_LatLon0.15_PT084H.grib2 2026-05-08 04:18 1.4M
20260508T00Z_MSC_GDPS_VerticalVelocity_IsbL-0700_LatLon0.15_PT084H.grib2 2026-05-08 04:18 1.2M
20260508T00Z_MSC_GDPS_VerticalVelocity_IsbL-0850_LatLon0.15_PT084H.grib2 2026-05-08 04:18 1.3M
20260508T00Z_MSC_GDPS_WindChill_Sfc_LatLon0.15_PT084H.grib2 2026-05-08 04:18 5.3M
20260508T00Z_MSC_GDPS_WindDir_AGL-10m_LatLon0.15_PT084H.grib2 2026-05-08 04:18 1.3M
20260508T00Z_MSC_GDPS_WindDir_AGL-120m_LatLon0.15_PT084H.grib2 2026-05-08 04:18 1.3M
20260508T00Z_MSC_GDPS_WindDir_AGL-40m_LatLon0.15_PT084H.grib2 2026-05-08 04:18 1.4M
20260508T00Z_MSC_GDPS_WindDir_AGL-80m_LatLon0.15_PT084H.grib2 2026-05-08 04:18 1.3M
20260508T00Z_MSC_GDPS_WindDir_IsbL-0001_LatLon0.15_PT084H.grib2 2026-05-08 04:18 659K
20260508T00Z_MSC_GDPS_WindDir_IsbL-0005_LatLon0.15_PT084H.grib2 2026-05-08 04:18 810K
20260508T00Z_MSC_GDPS_WindDir_IsbL-0010_LatLon0.15_PT084H.grib2 2026-05-08 04:18 848K
20260508T00Z_MSC_GDPS_WindDir_IsbL-0020_LatLon0.15_PT084H.grib2 2026-05-08 04:18 961K
20260508T00Z_MSC_GDPS_WindDir_IsbL-0030_LatLon0.15_PT084H.grib2 2026-05-08 04:18 1.0M
20260508T00Z_MSC_GDPS_WindDir_IsbL-0050_LatLon0.15_PT084H.grib2 2026-05-08 04:18 962K
20260508T00Z_MSC_GDPS_WindDir_IsbL-0100_LatLon0.15_PT084H.grib2 2026-05-08 04:18 1.0M
20260508T00Z_MSC_GDPS_WindDir_IsbL-0150_LatLon0.15_PT084H.grib2 2026-05-08 04:18 1.0M
20260508T00Z_MSC_GDPS_WindDir_IsbL-0175_LatLon0.15_PT084H.grib2 2026-05-08 04:18 1.1M
20260508T00Z_MSC_GDPS_WindDir_IsbL-0200_LatLon0.15_PT084H.grib2 2026-05-08 04:18 1.1M
20260508T00Z_MSC_GDPS_WindDir_IsbL-0225_LatLon0.15_PT084H.grib2 2026-05-08 04:18 1.1M
20260508T00Z_MSC_GDPS_WindDir_IsbL-0250_LatLon0.15_PT084H.grib2 2026-05-08 04:18 1.1M
20260508T00Z_MSC_GDPS_WindDir_IsbL-0275_LatLon0.15_PT084H.grib2 2026-05-08 04:18 1.2M
20260508T00Z_MSC_GDPS_WindDir_IsbL-0300_LatLon0.15_PT084H.grib2 2026-05-08 04:18 1.2M
20260508T00Z_MSC_GDPS_WindDir_IsbL-0350_LatLon0.15_PT084H.grib2 2026-05-08 04:18 1.2M
20260508T00Z_MSC_GDPS_WindDir_IsbL-0400_LatLon0.15_PT084H.grib2 2026-05-08 04:18 1.3M
20260508T00Z_MSC_GDPS_WindDir_IsbL-0450_LatLon0.15_PT084H.grib2 2026-05-08 04:18 1.3M
20260508T00Z_MSC_GDPS_WindDir_IsbL-0500_LatLon0.15_PT084H.grib2 2026-05-08 04:18 1.4M
20260508T00Z_MSC_GDPS_WindDir_IsbL-0550_LatLon0.15_PT084H.grib2 2026-05-08 04:18 1.4M
20260508T00Z_MSC_GDPS_WindDir_IsbL-0600_LatLon0.15_PT084H.grib2 2026-05-08 04:18 1.5M
20260508T00Z_MSC_GDPS_WindDir_IsbL-0650_LatLon0.15_PT084H.grib2 2026-05-08 04:18 1.5M
20260508T00Z_MSC_GDPS_WindDir_IsbL-0700_LatLon0.15_PT084H.grib2 2026-05-08 04:18 1.6M
20260508T00Z_MSC_GDPS_WindDir_IsbL-0750_LatLon0.15_PT084H.grib2 2026-05-08 04:18 1.7M
20260508T00Z_MSC_GDPS_WindDir_IsbL-0800_LatLon0.15_PT084H.grib2 2026-05-08 04:18 1.8M
20260508T00Z_MSC_GDPS_WindDir_IsbL-0850_LatLon0.15_PT084H.grib2 2026-05-08 04:18 1.9M
20260508T00Z_MSC_GDPS_WindDir_IsbL-0875_LatLon0.15_PT084H.grib2 2026-05-08 04:18 1.9M
20260508T00Z_MSC_GDPS_WindDir_IsbL-0900_LatLon0.15_PT084H.grib2 2026-05-08 04:18 1.9M
20260508T00Z_MSC_GDPS_WindDir_IsbL-0925_LatLon0.15_PT084H.grib2 2026-05-08 04:18 1.9M
20260508T00Z_MSC_GDPS_WindDir_IsbL-0950_LatLon0.15_PT084H.grib2 2026-05-08 04:18 1.9M
20260508T00Z_MSC_GDPS_WindDir_IsbL-0970_LatLon0.15_PT084H.grib2 2026-05-08 04:18 2.0M
20260508T00Z_MSC_GDPS_WindDir_IsbL-0985_LatLon0.15_PT084H.grib2 2026-05-08 04:18 2.0M
20260508T00Z_MSC_GDPS_WindDir_IsbL-1000_LatLon0.15_PT084H.grib2 2026-05-08 04:18 2.0M
20260508T00Z_MSC_GDPS_WindDir_IsbL-1015_LatLon0.15_PT084H.grib2 2026-05-08 04:18 2.0M
20260508T00Z_MSC_GDPS_WindGust-Max_AGL-10m_LatLon0.15_PT084H.grib2 2026-05-08 04:18 2.2M
20260508T00Z_MSC_GDPS_WindGust-Min_AGL-10m_LatLon0.15_PT084H.grib2 2026-05-08 04:18 2.2M
20260508T00Z_MSC_GDPS_WindGust_AGL-10m_LatLon0.15_PT084H.grib2 2026-05-08 04:18 2.2M
20260508T00Z_MSC_GDPS_WindSpeed_AGL-10m_LatLon0.15_PT084H.grib2 2026-05-08 04:18 1.1M
20260508T00Z_MSC_GDPS_WindSpeed_AGL-120m_LatLon0.15_PT084H.grib2 2026-05-08 04:18 1.2M
20260508T00Z_MSC_GDPS_WindSpeed_AGL-40m_LatLon0.15_PT084H.grib2 2026-05-08 04:18 1.2M
20260508T00Z_MSC_GDPS_WindSpeed_AGL-80m_LatLon0.15_PT084H.grib2 2026-05-08 04:18 1.2M
20260508T00Z_MSC_GDPS_WindSpeed_IsbL-0001_LatLon0.15_PT084H.grib2 2026-05-08 04:18 654K
20260508T00Z_MSC_GDPS_WindSpeed_IsbL-0005_LatLon0.15_PT084H.grib2 2026-05-08 04:18 699K
20260508T00Z_MSC_GDPS_WindSpeed_IsbL-0010_LatLon0.15_PT084H.grib2 2026-05-08 04:18 631K
20260508T00Z_MSC_GDPS_WindSpeed_IsbL-0020_LatLon0.15_PT084H.grib2 2026-05-08 04:18 670K
20260508T00Z_MSC_GDPS_WindSpeed_IsbL-0030_LatLon0.15_PT084H.grib2 2026-05-08 04:18 679K
20260508T00Z_MSC_GDPS_WindSpeed_IsbL-0050_LatLon0.15_PT084H.grib2 2026-05-08 04:18 902K
20260508T00Z_MSC_GDPS_WindSpeed_IsbL-0100_LatLon0.15_PT084H.grib2 2026-05-08 04:18 1.1M
20260508T00Z_MSC_GDPS_WindSpeed_IsbL-0150_LatLon0.15_PT084H.grib2 2026-05-08 04:18 1.0M
20260508T00Z_MSC_GDPS_WindSpeed_IsbL-0175_LatLon0.15_PT084H.grib2 2026-05-08 04:18 1.0M
20260508T00Z_MSC_GDPS_WindSpeed_IsbL-0200_LatLon0.15_PT084H.grib2 2026-05-08 04:18 1.1M
20260508T00Z_MSC_GDPS_WindSpeed_IsbL-0225_LatLon0.15_PT084H.grib2 2026-05-08 04:18 1.1M
20260508T00Z_MSC_GDPS_WindSpeed_IsbL-0250_LatLon0.15_PT084H.grib2 2026-05-08 04:18 1.1M
20260508T00Z_MSC_GDPS_WindSpeed_IsbL-0275_LatLon0.15_PT084H.grib2 2026-05-08 04:18 1.1M
20260508T00Z_MSC_GDPS_WindSpeed_IsbL-0300_LatLon0.15_PT084H.grib2 2026-05-08 04:18 1.1M
20260508T00Z_MSC_GDPS_WindSpeed_IsbL-0350_LatLon0.15_PT084H.grib2 2026-05-08 04:18 1.1M
20260508T00Z_MSC_GDPS_WindSpeed_IsbL-0400_LatLon0.15_PT084H.grib2 2026-05-08 04:18 1.1M
20260508T00Z_MSC_GDPS_WindSpeed_IsbL-0450_LatLon0.15_PT084H.grib2 2026-05-08 04:18 1.1M
20260508T00Z_MSC_GDPS_WindSpeed_IsbL-0500_LatLon0.15_PT084H.grib2 2026-05-08 04:18 1.1M
20260508T00Z_MSC_GDPS_WindSpeed_IsbL-0550_LatLon0.15_PT084H.grib2 2026-05-08 04:18 1.1M
20260508T00Z_MSC_GDPS_WindSpeed_IsbL-0600_LatLon0.15_PT084H.grib2 2026-05-08 04:18 1.1M
20260508T00Z_MSC_GDPS_WindSpeed_IsbL-0650_LatLon0.15_PT084H.grib2 2026-05-08 04:18 1.2M
20260508T00Z_MSC_GDPS_WindSpeed_IsbL-0700_LatLon0.15_PT084H.grib2 2026-05-08 04:18 1.5M
20260508T00Z_MSC_GDPS_WindSpeed_IsbL-0750_LatLon0.15_PT084H.grib2 2026-05-08 04:18 1.6M
20260508T00Z_MSC_GDPS_WindSpeed_IsbL-0800_LatLon0.15_PT084H.grib2 2026-05-08 04:18 1.7M
20260508T00Z_MSC_GDPS_WindSpeed_IsbL-0850_LatLon0.15_PT084H.grib2 2026-05-08 04:18 1.9M
20260508T00Z_MSC_GDPS_WindSpeed_IsbL-0875_LatLon0.15_PT084H.grib2 2026-05-08 04:18 1.9M
20260508T00Z_MSC_GDPS_WindSpeed_IsbL-0900_LatLon0.15_PT084H.grib2 2026-05-08 04:18 1.8M
20260508T00Z_MSC_GDPS_WindSpeed_IsbL-0925_LatLon0.15_PT084H.grib2 2026-05-08 04:18 1.9M
20260508T00Z_MSC_GDPS_WindSpeed_IsbL-0950_LatLon0.15_PT084H.grib2 2026-05-08 04:18 1.9M
20260508T00Z_MSC_GDPS_WindSpeed_IsbL-0970_LatLon0.15_PT084H.grib2 2026-05-08 04:18 1.9M
20260508T00Z_MSC_GDPS_WindSpeed_IsbL-0985_LatLon0.15_PT084H.grib2 2026-05-08 04:18 1.8M
20260508T00Z_MSC_GDPS_WindSpeed_IsbL-1000_LatLon0.15_PT084H.grib2 2026-05-08 04:18 1.8M
20260508T00Z_MSC_GDPS_WindSpeed_IsbL-1015_LatLon0.15_PT084H.grib2 2026-05-08 04:18 1.8M
20260508T00Z_MSC_GDPS_WindU_AGL-10m_LatLon0.15_PT084H.grib2 2026-05-08 04:18 1.3M
20260508T00Z_MSC_GDPS_WindU_AGL-120m_LatLon0.15_PT084H.grib2 2026-05-08 04:18 968K
20260508T00Z_MSC_GDPS_WindU_AGL-40m_LatLon0.15_PT084H.grib2 2026-05-08 04:18 964K
20260508T00Z_MSC_GDPS_WindU_AGL-80m_LatLon0.15_PT084H.grib2 2026-05-08 04:18 969K
20260508T00Z_MSC_GDPS_WindU_IsbL-0001_LatLon0.15_PT084H.grib2 2026-05-08 04:18 505K
20260508T00Z_MSC_GDPS_WindU_IsbL-0005_LatLon0.15_PT084H.grib2 2026-05-08 04:18 694K
20260508T00Z_MSC_GDPS_WindU_IsbL-0010_LatLon0.15_PT084H.grib2 2026-05-08 04:18 704K
20260508T00Z_MSC_GDPS_WindU_IsbL-0020_LatLon0.15_PT084H.grib2 2026-05-08 04:18 734K
20260508T00Z_MSC_GDPS_WindU_IsbL-0030_LatLon0.15_PT084H.grib2 2026-05-08 04:18 746K
20260508T00Z_MSC_GDPS_WindU_IsbL-0050_LatLon0.15_PT084H.grib2 2026-05-08 04:18 764K
20260508T00Z_MSC_GDPS_WindU_IsbL-0100_LatLon0.15_PT084H.grib2 2026-05-08 04:18 923K
20260508T00Z_MSC_GDPS_WindU_IsbL-0150_LatLon0.15_PT084H.grib2 2026-05-08 04:18 1.0M
20260508T00Z_MSC_GDPS_WindU_IsbL-0175_LatLon0.15_PT084H.grib2 2026-05-08 04:18 804K
20260508T00Z_MSC_GDPS_WindU_IsbL-0200_LatLon0.15_PT084H.grib2 2026-05-08 04:18 837K
20260508T00Z_MSC_GDPS_WindU_IsbL-0225_LatLon0.15_PT084H.grib2 2026-05-08 04:18 849K
20260508T00Z_MSC_GDPS_WindU_IsbL-0250_LatLon0.15_PT084H.grib2 2026-05-08 04:18 853K
20260508T00Z_MSC_GDPS_WindU_IsbL-0275_LatLon0.15_PT084H.grib2 2026-05-08 04:18 882K
20260508T00Z_MSC_GDPS_WindU_IsbL-0300_LatLon0.15_PT084H.grib2 2026-05-08 04:18 872K
20260508T00Z_MSC_GDPS_WindU_IsbL-0350_LatLon0.15_PT084H.grib2 2026-05-08 04:18 887K
20260508T00Z_MSC_GDPS_WindU_IsbL-0400_LatLon0.15_PT084H.grib2 2026-05-08 04:18 893K
20260508T00Z_MSC_GDPS_WindU_IsbL-0450_LatLon0.15_PT084H.grib2 2026-05-08 04:18 1.1M
20260508T00Z_MSC_GDPS_WindU_IsbL-0500_LatLon0.15_PT084H.grib2 2026-05-08 04:18 1.1M
20260508T00Z_MSC_GDPS_WindU_IsbL-0550_LatLon0.15_PT084H.grib2 2026-05-08 04:18 1.1M
20260508T00Z_MSC_GDPS_WindU_IsbL-0600_LatLon0.15_PT084H.grib2 2026-05-08 04:18 1.2M
20260508T00Z_MSC_GDPS_WindU_IsbL-0650_LatLon0.15_PT084H.grib2 2026-05-08 04:18 1.2M
20260508T00Z_MSC_GDPS_WindU_IsbL-0700_LatLon0.15_PT084H.grib2 2026-05-08 04:18 1.2M
20260508T00Z_MSC_GDPS_WindU_IsbL-0750_LatLon0.15_PT084H.grib2 2026-05-08 04:18 1.3M
20260508T00Z_MSC_GDPS_WindU_IsbL-0800_LatLon0.15_PT084H.grib2 2026-05-08 04:18 1.4M
20260508T00Z_MSC_GDPS_WindU_IsbL-0850_LatLon0.15_PT084H.grib2 2026-05-08 04:18 1.4M
20260508T00Z_MSC_GDPS_WindU_IsbL-0875_LatLon0.15_PT084H.grib2 2026-05-08 04:18 1.4M
20260508T00Z_MSC_GDPS_WindU_IsbL-0900_LatLon0.15_PT084H.grib2 2026-05-08 04:18 1.5M
20260508T00Z_MSC_GDPS_WindU_IsbL-0925_LatLon0.15_PT084H.grib2 2026-05-08 04:18 1.4M
20260508T00Z_MSC_GDPS_WindU_IsbL-0950_LatLon0.15_PT084H.grib2 2026-05-08 04:18 1.4M
20260508T00Z_MSC_GDPS_WindU_IsbL-0970_LatLon0.15_PT084H.grib2 2026-05-08 04:18 1.4M
20260508T00Z_MSC_GDPS_WindU_IsbL-0985_LatLon0.15_PT084H.grib2 2026-05-08 04:18 1.4M
20260508T00Z_MSC_GDPS_WindU_IsbL-1000_LatLon0.15_PT084H.grib2 2026-05-08 04:18 1.4M
20260508T00Z_MSC_GDPS_WindU_IsbL-1015_LatLon0.15_PT084H.grib2 2026-05-08 04:18 1.3M
20260508T00Z_MSC_GDPS_WindV_AGL-10m_LatLon0.15_PT084H.grib2 2026-05-08 04:18 1.3M
20260508T00Z_MSC_GDPS_WindV_AGL-120m_LatLon0.15_PT084H.grib2 2026-05-08 04:18 968K
20260508T00Z_MSC_GDPS_WindV_AGL-40m_LatLon0.15_PT084H.grib2 2026-05-08 04:18 963K
20260508T00Z_MSC_GDPS_WindV_AGL-80m_LatLon0.15_PT084H.grib2 2026-05-08 04:18 969K
20260508T00Z_MSC_GDPS_WindV_IsbL-0001_LatLon0.15_PT084H.grib2 2026-05-08 04:18 723K
20260508T00Z_MSC_GDPS_WindV_IsbL-0005_LatLon0.15_PT084H.grib2 2026-05-08 04:18 788K
20260508T00Z_MSC_GDPS_WindV_IsbL-0010_LatLon0.15_PT084H.grib2 2026-05-08 04:18 810K
20260508T00Z_MSC_GDPS_WindV_IsbL-0020_LatLon0.15_PT084H.grib2 2026-05-08 04:18 858K
20260508T00Z_MSC_GDPS_WindV_IsbL-0030_LatLon0.15_PT084H.grib2 2026-05-08 04:18 866K
20260508T00Z_MSC_GDPS_WindV_IsbL-0050_LatLon0.15_PT084H.grib2 2026-05-08 04:18 700K
20260508T00Z_MSC_GDPS_WindV_IsbL-0100_LatLon0.15_PT084H.grib2 2026-05-08 04:18 855K
20260508T00Z_MSC_GDPS_WindV_IsbL-0150_LatLon0.15_PT084H.grib2 2026-05-08 04:18 1.0M
20260508T00Z_MSC_GDPS_WindV_IsbL-0175_LatLon0.15_PT084H.grib2 2026-05-08 04:18 1.0M
20260508T00Z_MSC_GDPS_WindV_IsbL-0200_LatLon0.15_PT084H.grib2 2026-05-08 04:18 834K
20260508T00Z_MSC_GDPS_WindV_IsbL-0225_LatLon0.15_PT084H.grib2 2026-05-08 04:18 903K
20260508T00Z_MSC_GDPS_WindV_IsbL-0250_LatLon0.15_PT084H.grib2 2026-05-08 04:18 909K
20260508T00Z_MSC_GDPS_WindV_IsbL-0275_LatLon0.15_PT084H.grib2 2026-05-08 04:18 934K
20260508T00Z_MSC_GDPS_WindV_IsbL-0300_LatLon0.15_PT084H.grib2 2026-05-08 04:18 923K
20260508T00Z_MSC_GDPS_WindV_IsbL-0350_LatLon0.15_PT084H.grib2 2026-05-08 04:18 937K
20260508T00Z_MSC_GDPS_WindV_IsbL-0400_LatLon0.15_PT084H.grib2 2026-05-08 04:18 940K
20260508T00Z_MSC_GDPS_WindV_IsbL-0450_LatLon0.15_PT084H.grib2 2026-05-08 04:18 885K
20260508T00Z_MSC_GDPS_WindV_IsbL-0500_LatLon0.15_PT084H.grib2 2026-05-08 04:18 890K
20260508T00Z_MSC_GDPS_WindV_IsbL-0550_LatLon0.15_PT084H.grib2 2026-05-08 04:18 897K
20260508T00Z_MSC_GDPS_WindV_IsbL-0600_LatLon0.15_PT084H.grib2 2026-05-08 04:18 1.1M
20260508T00Z_MSC_GDPS_WindV_IsbL-0650_LatLon0.15_PT084H.grib2 2026-05-08 04:18 1.2M
20260508T00Z_MSC_GDPS_WindV_IsbL-0700_LatLon0.15_PT084H.grib2 2026-05-08 04:18 1.2M
20260508T00Z_MSC_GDPS_WindV_IsbL-0750_LatLon0.15_PT084H.grib2 2026-05-08 04:18 1.3M
20260508T00Z_MSC_GDPS_WindV_IsbL-0800_LatLon0.15_PT084H.grib2 2026-05-08 04:18 1.4M
20260508T00Z_MSC_GDPS_WindV_IsbL-0850_LatLon0.15_PT084H.grib2 2026-05-08 04:18 1.4M
20260508T00Z_MSC_GDPS_WindV_IsbL-0875_LatLon0.15_PT084H.grib2 2026-05-08 04:18 1.4M
20260508T00Z_MSC_GDPS_WindV_IsbL-0900_LatLon0.15_PT084H.grib2 2026-05-08 04:18 1.4M
20260508T00Z_MSC_GDPS_WindV_IsbL-0925_LatLon0.15_PT084H.grib2 2026-05-08 04:18 1.4M
20260508T00Z_MSC_GDPS_WindV_IsbL-0950_LatLon0.15_PT084H.grib2 2026-05-08 04:18 1.4M
20260508T00Z_MSC_GDPS_WindV_IsbL-0970_LatLon0.15_PT084H.grib2 2026-05-08 04:18 1.4M
20260508T00Z_MSC_GDPS_WindV_IsbL-0985_LatLon0.15_PT084H.grib2 2026-05-08 04:18 1.4M
20260508T00Z_MSC_GDPS_WindV_IsbL-1000_LatLon0.15_PT084H.grib2 2026-05-08 04:18 1.4M
20260508T00Z_MSC_GDPS_WindV_IsbL-1015_LatLon0.15_PT084H.grib2 2026-05-08 04:18 1.3M